Probability
0 0 0 2 4 5 5 4 3 3 2 1 0 1 2 2 2 2 1 0 0 0 0 0 0 0 0 0 0 0 0 0 0 0 0 0 0 0 0 0 0 0 0
0 1 1 2 5 6 6 5 4 3 3 1 0 0 1 1 1 1 0 0 0 0 0 0 0 0 0 0 0 0 0 0 0 0 0 0 0 0 0 0 0 0 0
1 1 2 3 5 7 7 7 6 5 4 2 1 0 0 0 0 0 0 0 0 0 0 0 0 0 0 0 0 0 0 0 0 0 0 0 0 0 0 0 0 0 0
1 1 2 3 5 7 8 9 9 8 7 4 1 0 0 0 0 0 0 0 0 0 0 0 0 0 0 0 0 0 0 0 0 0 0 0 0 0 0 0 0 0 0
1 1 2 5 7 8 9 9 9 10 9 6 2 0 0 0 0 0 0 0 0 0 0 0 0 0 0 0 0 0 0 0 0 0 0 0 0 0 0 0 0 0 0
1 2 3 5 7 8 8 8 9 10 10 8 4 1 0 0 0 0 0 0 0 0 0 0 0 0 0 0 0 0 0 0 0 0 0 0 0 0 0 0 0 0 0
1 3 4 6 7 7 7 7 8 9 9 8 6 4 2 0 0 0 0 0 0 0 0 0 0 0 0 0 0 0 0 0 0 0 0 0 0 0 0 0 0 0 0
2 4 6 6 7 6 6 7 8 9 8 8 7 6 4 1 0 0 0 0 0 0 0 0 0 0 0 0 0 0 0 0 0 0 0 0 0 0 0 0 0 0 0
5 6 8 8 7 6 6 7 9 9 9 9 8 7 4 1 0 0 0 0 0 0 0 0 0 0 0 0 0 0 0 0 0 0 0 0 0 0 0 0 0 0 0
7 8 9 9 7 6 6 7 9 10 11 10 8 6 3 1 0 0 0 0 0 0 0 0 0 0 0 0 0 0 0 0 0 0 0 0 0 0 0 0 0 0 0
9 11 11 9 7 5 4 5 7 9 11 11 7 5 3 1 0 0 0 0 0 0 0 0 0 0 0 0 0 0 0 0 0 0 0 0 0 0 0 0 0 0 0
10 11 12 9 6 4 3 4 5 7 10 9 6 4 2 1 0 0 0 0 0 0 0 0 0 0 0 0 0 0 0 0 0 0 0 0 0 0 0 0 0 0 0
9 10 10 8 5 4 3 4 5 7 7 6 4 3 2 1 0 0 0 0 0 0 0 0 0 0 0 0 0 0 0 0 0 0 0 0 0 0 0 0 0 0 0
7 8 8 6 4 3 2 3 4 5 5 4 3 2 1 0 0 0 0 0 0 0 0 0 0 0 0 0 0 0 0 0 0 0 0 0 0 0 0 0 0 0 0
4 6 5 4 2 1 1 1 3 3 3 3 2 1 0 0 0 0 0 0 0 0 0 0 0 0 0 0 0 0 0 0 0 0 0 0 0 0 0 0 0 0 0
2 3 4 2 1 0 0 0 1 1 1 1 1 0 0 0 0 0 0 0 0 0 0 0 0 0 0 0 0 0 0 0 0 0 0 0 0 0 0 0 0 0 0
1 1 1 1 1 0 0 0 0 0 0 0 0 0 0 0 0 0 0 0 0 0 0 0 0 0 0 0 0 0 0 0 0 0 0 0 0 0 0 0 0 0 0
1 0 0 0 0 0 0 0 0 0 0 0 0 0 0 0 0 0 0 0 0 0 0 0 0 0 0 0 0 0 0 0 0 0 0 0 0 0 0 0 0 0 0
1 0 0 0 0 0 0 0 0 0 0 0 0 0 0 0 0 0 0 0 0 0 0 0 0 0 0 0 0 0 0 0 0 0 0 0 0 0 0 0 0 0 0
2 1 0 0 0 0 0 0 0 0 0 0 0 0 0 0 0 0 0 0 0 0 0 0 0 0 0 0 0 0 0 0 0 0 0 0 0 0 0 0 0 0 0
2 1 0 0 0 0 0 0 0 0 0 0 0 0 0 0 0 0 0 0 0 0 0 0 0 0 0 0 0 0 0 0 0 0 0 0 0 0 0 0 0 0 0
1 0 0 0 0 0 0 0 0 0 0 0 0 0 0 0 0 0 0 0 0 0 0 0 0 0 0 0 0 0 0 0 0 0 0 0 0 0 0 0 0 0 0
0 0 0 0 0 0 0 0 0 0 0 0 0 0 0 0 0 0 0 0 0 0 0 0 0 0 0 0 0 0 0 0 0 0 0 0 0 0 0 0 0 0 0
0 0 0 0 0 0 0 0 0 0 0 0 0 0 0 0 0 0 0 0 0 0 0 0 0 0 0 0 0 0 0 0 0 0 0 0 0 0 0 0 0 0 0
0 0 0 0 0 0 0 0 0 0 0 0 0 0 0 0 0 0 0 0 0 0 0 0 0 0 0 0 0 0 0 0 0 0 0 0 0 0 0 0 0 0 0
0 0 0 0 0 0 0 0 0 0 0 0 0 0 0 0 0 0 0 0 0 0 0 0 0 0 0 0 0 0 0 0 0 0 0 0 0 0 0 0 0 0 0
Wind_Speed
4 4 5 5 5 6 5 5 5 5 6 6 6 6 6 6 6 5 5 5 5 4 5 4 4 3 3 3 3 3 2 2 3 3 3 4 4 4 4 3 3 3 6
4 4 5 5 5 6 6 6 6 5 5 6 6 6 6 6 5 6 5 5 5 4 4 4 4 4 4 3 3 3 2 3 3 5 4 4 4 4 3 3 3 3 4
4 5 5 5 6 5 5 5 6 6 5 6 6 6 6 6 6 6 6 6 5 4 4 5 5 5 5 4 4 3 2 3 3 4 4 3 3 3 4 3 3 2 2
5 5 5 5 6 6 5 5 5 6 6 6 6 6 6 6 6 6 6 5 5 5 4 4 4 5 5 5 4 4 4 4 4 4 4 4 4 4 4 3 3 2 2
5 6 5 5 5 5 5 5 5 5 6 6 6 6 6 5 4 5 6 5 5 5 5 4 4 3 3 2 2 4 5 4 4 4 4 4 4 4 4 3 3 2 2
5 6 6 6 5 5 5 5 5 5 5 6 6 6 6 4 5 3 4 6 6 6 5 5 5 5 5 4 2 1 2 4 5 5 4 5 5 5 4 4 3 3 2
6 6 6 6 6 6 5 5 5 5 5 5 6 6 6 6 8 7 4 4 5 5 5 5 4 4 6 5 6 5 3 0 1 3 4 4 4 5 5 5 4 3 1
7 6 6 6 6 6 6 6 6 5 6 5 5 6 6 6 8 8 6 6 5 5 5 5 5 6 5 4 5 5 5 4 3 4 3 2 2 3 4 3 3 3 2
7 7 7 7 7 7 7 6 6 5 6 6 6 6 6 7 8 8 7 6 5 5 5 5 4 5 6 4 5 5 5 4 3 3 5 4 5 3 2 3 4 4 3
6 7 7 7 7 7 7 6 5 5 6 5 5 6 6 6 9 9 8 5 5 5 5 5 4 3 8 6 6 5 5 4 5 4 4 4 4 4 3 4 4 3 2
5 6 6 7 7 7 6 6 5 5 6 6 6 5 6 5 9 9 8 5 5 5 5 5 4 7 7 6 5 4 3 3 4 4 4 4 3 3 4 3 3 3 3
5 6 6 6 6 6 6 6 6 5 6 6 6 6 5 5 6 8 9 6 4 5 5 4 5 9 8 7 4 3 4 3 3 3 3 3 3 3 3 2 2 2 1
5 6 6 6 5 5 6 6 6 5 5 6 5 5 5 4 5 8 9 8 6 5 4 4 7 9 8 6 6 6 6 4 3 4 3 3 2 2 2 2 2 2 1
6 6 6 6 6 6 5 5 5 5 5 6 6 5 5 5 5 6 7 7 7 6 4 6 8 8 5 4 6 6 5 4 3 3 3 2 2 3 3 3 3 3 2
6 6 5 5 6 5 5 4 5 5 5 6 6 6 6 6 6 7 6 6 6 6 6 5 5 5 5 5 4 4 4 4 4 3 3 3 3 3 3 3 3 3 3
6 6 5 5 5 5 5 4 3 3 4 5 5 5 5 5 7 9 8 7 7 9 7 6 6 6 6 6 5 5 5 5 5 4 4 4 4 4 3 3 3 3 3
6 6 5 5 5 5 5 5 4 3 4 5 7 7 6 5 8 10 9 9 10 11 7 6 6 6 6 6 6 6 5 5 4 4 4 4 4 4 4 4 4 4 4
5 5 5 5 5 5 5 6 5 5 5 4 6 7 7 7 9 10 10 9 7 8 7 6 6 6 6 6 6 6 5 5 5 5 5 5 5 5 5 5 5 5 4
4 4 4 4 5 5 5 5 5 6 5 4 4 5 7 8 8 9 12 8 7 7 7 7 7 6 6 6 5 5 6 5 5 5 5 5 5 5 5 5 5 5 5
3 4 4 4 5 5 5 5 5 5 5 5 5 5 5 6 6 7 8 7 7 7 7 7 6 6 6 5 5 5 6 6 6 6 5 5 5 5 6 6 5 5 5
3 3 4 4 4 4 5 5 5 5 5 5 5 4 6 6 6 8 8 7 7 7 7 7 6 6 6 5 5 6 7 6 6 6 6 6 6 6 5 5 5 5 4
3 3 3 4 4 4 4 4 5 5 5 5 4 5 8 6 6 6 6 7 7 6 6 6 6 6 6 6 6 6 7 6 6 6 6 6 6 6 6 6 5 5 5
3 3 3 3 4 4 5 4 4 4 5 5 4 4 5 5 6 6 6 6 6 6 6 6 6 5 5 5 6 6 7 7 6 6 6 6 6 6 5 6 7 6 6
3 4 4 3 4 4 5 5 4 5 5 5 5 5 5 6 6 6 6 6 6 6 6 6 6 7 8 6 5 5 6 5 5 6 8 7 7 6 6 6 6 7 6
4 4 4 4 4 5 5 5 5 5 5 5 5 5 5 5 5 5 5 5 6 6 7 6 5 6 9 9 7 6 6 6 6 5 6 6 7 7 6 6 6 6 6
4 4 4 4 4 5 5 5 5 5 5 5 5 5 5 5 5 5 5 5 5 5 6 6 7 8 8 8 8 8 7 7 8 7 6 6 7 6 7 6 7 6 6
Wind_Direction
213 208 205 199 199 195 198 198 205 195 188 188 195 197 190 188 189 183 197 194 205 192 186 188 184 176 176 178 185 190 196 191 148 130 129 137 143 132 125 118 117 106 95
210 210 209 193 197 196 195 196 200 192 190 190 191 196 190 192 194 188 194 196 204 201 191 186 181 169 177 176 183 191 180 179 167 148 148 149 151 139 132 131 122 109 101
211 208 209 201 203 201 200 197 199 192 191 189 186 194 193 191 191 191 190 196 197 193 190 190 185 174 174 168 185 184 172 169 166 164 149 143 155 154 149 146 133 128 121
213 210 209 207 207 209 202 199 200 190 191 192 192 195 194 188 189 190 187 191 186 179 181 185 185 181 181 175 180 178 175 173 174 166 156 162 164 170 175 165 157 151 150
215 212 210 211 208 204 195 200 200 194 193 193 194 194 191 187 191 190 187 189 183 177 180 181 167 124 79 134 186 182 179 182 178 171 167 171 174 181 190 181 175 163 148
219 215 207 210 204 198 195 194 196 195 194 191 194 189 189 181 146 164 208 191 188 181 181 177 154 151 134 138 123 132 208 201 188 182 184 191 187 186 181 187 184 192 182
218 213 201 205 202 198 189 189 193 198 193 193 192 188 191 169 150 166 203 218 196 186 184 178 164 155 165 170 155 163 176 9 260 224 205 202 192 182 185 194 200 212 206
214 207 198 197 197 192 190 192 195 197 192 193 189 189 189 166 157 167 182 209 195 185 187 185 178 174 177 177 172 178 175 168 186 220 219 199 187 177 190 197 194 187 166
213 205 199 195 193 192 195 198 196 197 192 190 185 188 189 171 160 166 183 195 189 186 180 177 179 177 138 171 188 180 173 155 118 60 34 62 75 92 151 170 178 191 200
216 208 199 197 194 194 198 198 194 195 192 185 184 191 191 179 158 168 195 191 189 181 176 173 165 169 146 179 200 189 188 174 161 152 143 138 149 150 177 201 198 211 214
219 208 198 195 197 197 194 192 193 193 189 186 183 185 189 185 164 172 191 207 192 186 182 182 167 157 161 186 222 207 175 170 173 172 166 160 162 163 179 202 210 228 233
212 204 198 196 194 190 187 187 190 188 186 184 186 183 185 181 179 179 186 209 215 196 190 184 160 157 169 179 197 141 130 166 182 178 181 181 178 175 179 183 187 201 275
214 201 196 196 193 189 188 187 186 189 191 189 188 189 187 186 179 178 183 191 203 206 184 149 145 157 168 177 174 161 169 193 192 193 196 197 192 174 161 158 164 154 134
213 203 196 196 191 189 193 193 193 193 197 197 195 195 190 187 188 183 185 185 186 193 180 147 148 157 173 161 161 177 197 200 204 207 198 180 165 167 177 182 186 185 178
208 202 202 202 196 192 194 201 205 203 208 207 203 199 194 196 191 181 182 184 186 183 168 164 169 172 178 180 184 189 192 190 202 205 192 185 185 189 191 193 200 204 213
208 203 201 200 198 197 196 197 201 218 200 213 218 219 208 193 164 171 181 176 165 159 168 182 188 190 191 190 191 193 197 199 202 199 198 196 194 195 196 197 203 211 214
215 208 202 201 200 199 199 201 202 196 197 205 205 208 213 185 173 176 177 171 166 166 186 198 200 199 199 199 200 200 201 200 197 197 199 198 198 198 198 199 203 211 217
218 210 208 204 203 206 207 207 208 209 204 203 200 198 196 189 183 177 167 161 173 187 205 205 207 207 204 202 202 202 200 195 193 198 201 199 200 201 203 205 207 212 217
222 210 209 209 206 209 212 212 211 211 211 206 199 184 184 183 180 173 169 186 191 195 204 210 209 208 206 204 203 200 197 196 196 198 200 201 202 204 209 211 213 212 220
226 213 216 212 207 205 207 209 209 209 208 206 204 200 176 176 185 179 189 201 202 203 205 209 209 207 203 201 198 196 196 196 196 199 200 202 203 207 211 212 212 209 215
225 205 206 211 210 209 209 210 209 209 210 211 207 193 188 195 201 196 195 202 206 207 206 208 207 203 200 197 195 198 199 199 199 200 199 201 201 204 210 211 211 213 215
220 212 211 211 208 210 211 209 210 212 211 212 205 186 187 203 210 208 202 206 208 209 205 204 206 203 198 196 195 195 197 199 199 198 199 200 202 205 206 206 206 207 208
222 220 220 216 208 202 208 208 208 212 215 215 204 196 194 206 213 213 209 207 205 206 202 202 206 204 201 201 200 200 201 201 198 196 197 197 200 203 204 205 206 205 207
224 221 219 215 212 208 210 211 209 211 215 220 215 205 205 210 215 217 213 206 202 204 203 202 205 207 203 200 202 206 209 204 198 198 199 200 200 201 200 203 205 206 208
220 217 216 216 216 214 214 213 213 214 217 220 218 212 212 213 213 215 214 205 201 202 204 204 205 207 207 205 203 204 196 192 195 196 197 198 200 200 198 200 201 202 205
217 216 218 217 219 217 214 213 215 217 218 220 220 215 216 218 216 215 213 208 205 205 205 207 207 204 203 204 205 200 186 184 186 191 195 194 195 197 196 198 202 202 203